LGX43B LICR-LIRA

Flight info

Callsign LGX43B
Flight time 1h 34m
Altitude 22000
Route PAZZE Z854 BAGIX DCT SOR DCT TEA DCT SIPRO DCT ALAXI
Aircraft BE9L/L-SDFGRWY/S

Departure

Time 2026-04-22 19:26
Airport Reggio Calabria Airport (LICR)

Arrival

Time 2026-04-22 21:01
Airport Ciampino–G. B. Pastine International Airport (LIRA)
Time Latitude Longitude Altitude Speed Heading
2026-04-22 19:23 38.07161 15.65542 101 ft 0 kts 65°
2026-04-22 19:24 38.07156 15.65555 101 ft 0 kts 139°
2026-04-22 19:24 38.07135 15.65570 101 ft 5 kts 154°
2026-04-22 19:24 38.07108 15.65580 101 ft 7 kts 194°
2026-04-22 19:25 38.07053 15.65549 101 ft 0 kts 204°
2026-04-22 19:25 38.07016 15.65535 101 ft 10 kts 161°
2026-04-22 19:25 38.06989 15.65567 101 ft 10 kts 280°
2026-04-22 19:25 38.06996 15.65535 101 ft 0 kts 294°
2026-04-22 19:26 38.07120 15.65142 101 ft 93 kts 295°
2026-04-22 19:26 38.07431 15.64166 255 ft 132 kts 290°
2026-04-22 19:26 38.07621 15.63024 760 ft 142 kts 272°
2026-04-22 19:27 38.07602 15.61698 1207 ft 152 kts 280°
2026-04-22 19:27 38.08090 15.60615 1827 ft 145 kts 324°
2026-04-22 19:27 38.09046 15.60334 2372 ft 147 kts
2026-04-22 19:27 38.09991 15.60716 2934 ft 146 kts 14°
2026-04-22 19:28 38.10979 15.61110 3431 ft 151 kts 14°
2026-04-22 19:28 38.11973 15.61506 3965 ft 152 kts 13°
2026-04-22 19:28 38.13001 15.61601 4491 ft 150 kts 344°
2026-04-22 19:28 38.13984 15.61224 5079 ft 149 kts 339°
2026-04-22 19:29 38.14955 15.60799 5613 ft 151 kts 338°
2026-04-22 19:29 38.15935 15.60345 6149 ft 151 kts 336°
2026-04-22 19:29 38.16909 15.59877 6671 ft 151 kts 336°
2026-04-22 19:29 38.17878 15.59401 7173 ft 152 kts 335°
2026-04-22 19:30 38.18534 15.59073 7504 ft 152 kts 335°
2026-04-22 19:30 38.19830 15.58421 8134 ft 153 kts 334°
2026-04-22 19:30 38.20839 15.57909 8615 ft 154 kts 334°
2026-04-22 19:30 38.21863 15.57387 9179 ft 154 kts 334°
2026-04-22 19:31 38.22850 15.56883 9696 ft 154 kts 334°
2026-04-22 19:31 38.23832 15.56379 10189 ft 154 kts 333°
2026-04-22 19:31 38.24815 15.55875 10669 ft 155 kts 333°
2026-04-22 19:31 38.25808 15.55366 11190 ft 152 kts 333°
2026-04-22 19:32 38.26765 15.54874 11669 ft 151 kts 332°
2026-04-22 19:32 38.27760 15.54446 12105 ft 156 kts 345°
2026-04-22 19:32 38.28859 15.54345 12574 ft 157 kts 348°
2026-04-22 19:32 38.29945 15.54270 13014 ft 157 kts 348°
2026-04-22 19:33 38.31028 15.54198 13443 ft 156 kts 348°
2026-04-22 19:33 38.32123 15.54127 13870 ft 156 kts 348°
2026-04-22 19:33 38.33240 15.54056 14295 ft 156 kts 348°
2026-04-22 19:33 38.34326 15.53987 14764 ft 158 kts 348°
2026-04-22 19:34 38.35401 15.53922 15317 ft 155 kts 347°
2026-04-22 19:34 38.36482 15.53855 15812 ft 156 kts 347°
2026-04-22 19:34 38.37551 15.53791 16292 ft 156 kts 346°
2026-04-22 19:34 38.38625 15.53727 16754 ft 156 kts 346°
2026-04-22 19:35 38.39712 15.53664 17211 ft 156 kts 346°
2026-04-22 19:35 38.40781 15.53603 17663 ft 155 kts 346°
2026-04-22 19:35 38.41854 15.53542 18093 ft 156 kts 345°
2026-04-22 19:35 38.42933 15.53481 18584 ft 157 kts 345°
2026-04-22 19:36 38.44021 15.53423 19127 ft 155 kts 345°
2026-04-22 19:36 38.45104 15.53363 19602 ft 157 kts 345°
2026-04-22 19:36 38.46192 15.53306 20087 ft 156 kts 345°
2026-04-22 19:36 38.47275 15.53250 20550 ft 157 kts 345°
2026-04-22 19:37 38.48354 15.53194 20995 ft 157 kts 345°
2026-04-22 19:37 38.49451 15.53139 21429 ft 158 kts 345°
2026-04-22 19:37 38.50542 15.53086 21849 ft 159 kts 345°
2026-04-22 19:37 38.51677 15.53025 22047 ft 172 kts 345°
2026-04-22 19:38 38.52942 15.52959 22061 ft 190 kts 347°
2026-04-22 19:38 38.54293 15.52794 22060 ft 202 kts 342°
2026-04-22 19:38 38.55715 15.52527 22047 ft 210 kts 341°
2026-04-22 19:38 38.57180 15.52223 22042 ft 218 kts 343°
2026-04-22 19:39 38.58725 15.52081 22037 ft 225 kts 347°
2026-04-22 19:39 38.60291 15.51973 22033 ft 228 kts 347°
2026-04-22 19:39 38.61902 15.51859 22030 ft 230 kts 347°
2026-04-22 19:39 38.63504 15.51743 22020 ft 232 kts 347°
2026-04-22 19:40 38.65116 15.51625 22036 ft 234 kts 347°
2026-04-22 19:40 38.66739 15.51505 22026 ft 237 kts 347°
2026-04-22 19:40 38.68397 15.51383 22030 ft 238 kts 348°
2026-04-22 19:40 38.70041 15.51259 22040 ft 238 kts 347°
2026-04-22 19:41 38.71682 15.51058 22080 ft 238 kts 347°
2026-04-22 19:41 38.73358 15.50967 22012 ft 242 kts 349°
2026-04-22 19:41 38.75019 15.50870 22019 ft 242 kts 348°
2026-04-22 19:41 38.76696 15.50760 22022 ft 241 kts 347°
2026-04-22 19:42 38.78371 15.50642 22011 ft 240 kts 347°
2026-04-22 19:42 38.80030 15.50521 22015 ft 239 kts 347°
2026-04-22 19:42 38.81681 15.50400 22013 ft 239 kts 347°
2026-04-22 19:42 38.83347 15.50277 22014 ft 239 kts 347°
2026-04-22 19:43 38.86650 15.50031 22014 ft 238 kts 347°
2026-04-22 19:43 38.88298 15.49909 22014 ft 238 kts 347°
2026-04-22 19:43 38.89957 15.49785 22014 ft 238 kts 347°
2026-04-22 19:44 38.91594 15.49663 22014 ft 238 kts 347°
2026-04-22 19:44 38.93247 15.49540 22014 ft 238 kts 347°
2026-04-22 19:44 38.94904 15.49416 22014 ft 238 kts 347°
2026-04-22 19:44 38.96548 15.49294 22014 ft 238 kts 347°
2026-04-22 19:45 38.98207 15.49161 22012 ft 236 kts 344°
2026-04-22 19:45 38.99706 15.48495 22028 ft 223 kts 327°
2026-04-22 19:45 39.01074 15.47596 22008 ft 223 kts 326°
2026-04-22 19:45 39.02457 15.46650 22018 ft 223 kts 325°
2026-04-22 19:46 39.03809 15.45710 22012 ft 223 kts 325°
2026-04-22 19:46 39.05173 15.44752 22014 ft 223 kts 324°
2026-04-22 19:46 39.06547 15.43782 22013 ft 223 kts 324°
2026-04-22 19:46 39.07907 15.42821 22013 ft 223 kts 324°
2026-04-22 19:47 39.09284 15.41845 22013 ft 223 kts 324°
2026-04-22 19:47 39.10635 15.40887 22015 ft 223 kts 324°
2026-04-22 19:47 39.11060 15.40585 22018 ft 223 kts 324°
2026-04-22 19:47 39.12080 15.39861 21990 ft 224 kts 324°
2026-04-22 19:48 39.13437 15.38898 22020 ft 221 kts 324°
2026-04-22 19:48 39.14774 15.37948 22007 ft 220 kts 324°
2026-04-22 19:48 39.16112 15.36997 22009 ft 219 kts 324°
2026-04-22 19:48 39.17430 15.36059 22016 ft 218 kts 324°
2026-04-22 19:49 39.18840 15.35056 22004 ft 217 kts 324°
2026-04-22 19:49 39.20168 15.34111 22028 ft 216 kts 324°
2026-04-22 19:49 39.21485 15.33172 22024 ft 217 kts 324°
2026-04-22 19:49 39.22798 15.32236 22026 ft 217 kts 324°
2026-04-22 19:50 39.24125 15.31290 22025 ft 217 kts 324°
2026-04-22 19:50 39.25436 15.30356 22028 ft 217 kts 324°
2026-04-22 19:50 39.26743 15.29425 22074 ft 214 kts 323°
2026-04-22 19:50 39.28059 15.28486 22075 ft 214 kts 323°
2026-04-22 19:51 39.29357 15.27558 22079 ft 213 kts 323°
2026-04-22 19:51 39.30644 15.26638 22078 ft 213 kts 323°
2026-04-22 19:51 39.31956 15.25701 22079 ft 213 kts 323°
2026-04-22 19:51 39.33242 15.24782 22078 ft 213 kts 323°
2026-04-22 19:52 39.34558 15.23839 22035 ft 215 kts 324°
2026-04-22 19:52 39.35860 15.22908 22033 ft 215 kts 324°
2026-04-22 19:52 39.37153 15.21983 22078 ft 214 kts 324°
2026-04-22 19:52 39.38455 15.21051 22076 ft 214 kts 324°
2026-04-22 19:53 39.39761 15.20115 22079 ft 214 kts 324°
2026-04-22 19:53 39.41067 15.19179 22078 ft 215 kts 324°
2026-04-22 19:53 39.42366 15.18247 22078 ft 215 kts 324°
2026-04-22 19:53 39.43666 15.17315 22077 ft 215 kts 324°
2026-04-22 19:54 39.44984 15.16369 22077 ft 215 kts 324°
2026-04-22 19:54 39.46289 15.15432 22077 ft 215 kts 324°
2026-04-22 19:54 39.47586 15.14501 22077 ft 215 kts 324°
2026-04-22 19:54 39.48897 15.13559 22076 ft 215 kts 324°
2026-04-22 19:55 39.50212 15.12614 22076 ft 215 kts 324°
2026-04-22 19:55 39.51515 15.11676 22076 ft 215 kts 324°
2026-04-22 19:55 39.52821 15.10737 22076 ft 215 kts 324°
2026-04-22 19:55 39.54131 15.09794 22076 ft 215 kts 324°
2026-04-22 19:56 39.55432 15.08857 22075 ft 215 kts 324°
2026-04-22 19:56 39.56749 15.07907 22048 ft 216 kts 324°
2026-04-22 19:56 39.58043 15.06975 22050 ft 215 kts 324°
2026-04-22 19:56 39.59360 15.06025 22047 ft 215 kts 324°
2026-04-22 19:57 39.60667 15.05083 22048 ft 215 kts 324°
2026-04-22 19:57 39.61967 15.04144 22047 ft 215 kts 324°
2026-04-22 19:57 39.63271 15.03203 22047 ft 215 kts 324°
2026-04-22 19:57 39.64588 15.02251 22047 ft 215 kts 324°
2026-04-22 19:58 39.65884 15.01315 22047 ft 215 kts 324°
2026-04-22 19:58 39.67184 15.00375 22047 ft 215 kts 324°
2026-04-22 19:58 39.68481 14.99437 22047 ft 215 kts 324°
2026-04-22 19:58 39.69790 14.98490 22047 ft 215 kts 324°
2026-04-22 19:59 39.71095 14.97545 22047 ft 215 kts 324°
2026-04-22 20:00 39.78924 14.91869 22046 ft 215 kts 324°
2026-04-22 20:00 39.80248 14.90907 22045 ft 215 kts 324°
2026-04-22 20:01 39.81544 14.89966 22045 ft 215 kts 324°
2026-04-22 20:01 39.82839 14.89025 22045 ft 215 kts 324°
2026-04-22 20:01 39.84143 14.88077 22045 ft 215 kts 324°
2026-04-22 20:01 39.85443 14.87131 22045 ft 215 kts 324°
2026-04-22 20:02 39.86746 14.86183 22044 ft 215 kts 324°
2026-04-22 20:02 39.88050 14.85233 22044 ft 215 kts 324°
2026-04-22 20:02 39.89346 14.84289 22044 ft 215 kts 324°
2026-04-22 20:02 39.90662 14.83330 22044 ft 215 kts 324°
2026-04-22 20:03 39.91956 14.82387 22044 ft 215 kts 324°
2026-04-22 20:03 39.93245 14.81447 22044 ft 215 kts 324°
2026-04-22 20:03 39.94555 14.80491 22043 ft 214 kts 324°
2026-04-22 20:03 39.95858 14.79540 22043 ft 214 kts 324°
2026-04-22 20:04 39.97144 14.78600 22043 ft 214 kts 324°
2026-04-22 20:04 39.98452 14.77644 22043 ft 214 kts 324°
2026-04-22 20:04 39.99739 14.76704 22043 ft 214 kts 324°
2026-04-22 20:04 40.01051 14.75745 22043 ft 214 kts 324°
2026-04-22 20:05 40.02336 14.74805 22042 ft 214 kts 324°
2026-04-22 20:05 40.03651 14.73841 22040 ft 215 kts 324°
2026-04-22 20:05 40.04939 14.72899 22044 ft 215 kts 324°
2026-04-22 20:05 40.06246 14.71941 22043 ft 216 kts 324°
2026-04-22 20:06 40.07570 14.70971 22043 ft 216 kts 324°
2026-04-22 20:06 40.08862 14.70024 22042 ft 216 kts 324°
2026-04-22 20:06 40.10178 14.69058 22043 ft 216 kts 324°
2026-04-22 20:06 40.11486 14.68098 22049 ft 216 kts 324°
2026-04-22 20:07 40.12805 14.67130 22047 ft 217 kts 324°
2026-04-22 20:07 40.14115 14.66168 22048 ft 217 kts 324°
2026-04-22 20:07 40.15416 14.65212 22047 ft 217 kts 324°
2026-04-22 20:07 40.16734 14.64243 22047 ft 217 kts 324°
2026-04-22 20:08 40.18047 14.63278 22046 ft 217 kts 324°
2026-04-22 20:08 40.19366 14.62307 22046 ft 217 kts 324°
2026-04-22 20:08 40.20678 14.61341 22046 ft 217 kts 324°
2026-04-22 20:08 40.21997 14.60369 22046 ft 217 kts 324°
2026-04-22 20:09 40.23316 14.59398 22046 ft 217 kts 324°
2026-04-22 20:09 40.24627 14.58431 22045 ft 217 kts 324°
2026-04-22 20:09 40.25944 14.57461 22042 ft 218 kts 323°
2026-04-22 20:09 40.27259 14.56491 22046 ft 218 kts 323°
2026-04-22 20:10 40.28570 14.55523 22045 ft 218 kts 323°
2026-04-22 20:10 40.29886 14.54551 22045 ft 218 kts 323°
2026-04-22 20:10 40.31207 14.53574 22045 ft 218 kts 323°
2026-04-22 20:10 40.32536 14.52592 22044 ft 218 kts 323°
2026-04-22 20:11 40.33854 14.51617 22044 ft 218 kts 323°
2026-04-22 20:11 40.35174 14.50641 22046 ft 218 kts 323°
2026-04-22 20:11 40.36476 14.49677 22073 ft 217 kts 323°
2026-04-22 20:11 40.37808 14.48691 22069 ft 217 kts 323°
2026-04-22 20:12 40.39121 14.47718 22072 ft 217 kts 323°
2026-04-22 20:12 40.40427 14.46750 22070 ft 217 kts 323°
2026-04-22 20:12 40.41760 14.45762 22070 ft 218 kts 323°
2026-04-22 20:12 40.43068 14.44792 22070 ft 218 kts 323°
2026-04-22 20:13 40.44384 14.43814 22070 ft 218 kts 323°
2026-04-22 20:13 40.45694 14.42841 22070 ft 218 kts 323°
2026-04-22 20:13 40.47010 14.41865 22070 ft 218 kts 323°
2026-04-22 20:13 40.48346 14.40872 22069 ft 218 kts 323°
2026-04-22 20:14 40.49649 14.39902 22069 ft 218 kts 323°
2026-04-22 20:14 40.50976 14.38916 22069 ft 218 kts 323°
2026-04-22 20:14 40.52283 14.37943 22069 ft 218 kts 323°
2026-04-22 20:14 40.53589 14.36970 22069 ft 218 kts 323°
2026-04-22 20:15 40.54912 14.35984 22069 ft 217 kts 323°
2026-04-22 20:15 40.56234 14.35000 22068 ft 217 kts 323°
2026-04-22 20:15 40.57538 14.34027 22081 ft 218 kts 323°
2026-04-22 20:15 40.58932 14.33192 22078 ft 222 kts 329°
2026-04-22 20:16 40.60365 14.32450 22079 ft 223 kts 330°
2026-04-22 20:16 40.61821 14.31706 22079 ft 223 kts 330°
2026-04-22 20:16 40.63251 14.30979 22077 ft 223 kts 330°
2026-04-22 20:16 40.64701 14.30245 22078 ft 223 kts 330°
2026-04-22 20:17 40.66159 14.29506 22077 ft 223 kts 330°
2026-04-22 20:17 40.67596 14.28779 22077 ft 223 kts 330°
2026-04-22 20:17 40.69033 14.28052 22077 ft 223 kts 330°
2026-04-22 20:17 40.70493 14.27313 22077 ft 223 kts 330°
2026-04-22 20:18 40.71954 14.26573 22077 ft 223 kts 330°
2026-04-22 20:18 40.73404 14.25839 22076 ft 223 kts 330°
2026-04-22 20:18 40.74849 14.25107 22076 ft 223 kts 330°
2026-04-22 20:18 40.76307 14.24368 22082 ft 223 kts 330°
2026-04-22 20:19 40.77752 14.23635 22075 ft 223 kts 330°
2026-04-22 20:19 40.79195 14.22902 22077 ft 223 kts 330°
2026-04-22 20:19 40.80641 14.22168 22075 ft 223 kts 330°
2026-04-22 20:19 40.82076 14.21439 22076 ft 223 kts 330°
2026-04-22 20:20 40.83527 14.20702 22075 ft 223 kts 330°
2026-04-22 20:20 40.84970 14.19968 22075 ft 223 kts 330°
2026-04-22 20:20 40.86400 14.19241 22075 ft 223 kts 330°
2026-04-22 20:20 40.87857 14.18499 22075 ft 223 kts 330°
2026-04-22 20:21 40.89288 14.17770 22075 ft 223 kts 330°
2026-04-22 20:21 40.90742 14.17030 22075 ft 223 kts 330°
2026-04-22 20:21 40.92181 14.16297 22075 ft 223 kts 330°
2026-04-22 20:21 40.93623 14.15561 22075 ft 223 kts 330°
2026-04-22 20:22 40.95077 14.14820 22074 ft 223 kts 330°
2026-04-22 20:22 40.96508 14.14089 22074 ft 223 kts 330°
2026-04-22 20:22 40.97964 14.13346 22074 ft 223 kts 330°
2026-04-22 20:22 40.99392 14.12616 22074 ft 222 kts 330°
2026-04-22 20:23 41.00830 14.11881 22074 ft 222 kts 330°
2026-04-22 20:23 41.02279 14.11140 22074 ft 222 kts 330°
2026-04-22 20:23 41.03721 14.10403 22074 ft 222 kts 330°
2026-04-22 20:23 41.05164 14.09664 22073 ft 222 kts 330°
2026-04-22 20:24 41.06600 14.08929 22073 ft 222 kts 330°
2026-04-22 20:24 41.08037 14.08193 22073 ft 222 kts 330°
2026-04-22 20:24 41.09497 14.07445 22073 ft 222 kts 330°
2026-04-22 20:24 41.10918 14.06716 22077 ft 222 kts 330°
2026-04-22 20:25 41.12359 14.05977 22078 ft 223 kts 330°
2026-04-22 20:25 41.13798 14.05238 22078 ft 223 kts 330°
2026-04-22 20:25 41.15252 14.04491 22077 ft 223 kts 330°
2026-04-22 20:25 41.16694 14.03751 22077 ft 223 kts 330°
2026-04-22 20:26 41.18145 14.03005 22077 ft 223 kts 330°
2026-04-22 20:26 41.19574 14.02270 22077 ft 223 kts 330°
2026-04-22 20:26 41.21026 14.01523 22077 ft 223 kts 330°
2026-04-22 20:26 41.22467 14.00782 22076 ft 223 kts 330°
2026-04-22 20:27 41.23905 14.00041 22076 ft 223 kts 330°
2026-04-22 20:27 41.25357 13.99293 22077 ft 223 kts 330°
2026-04-22 20:27 41.26793 13.98555 22105 ft 220 kts 329°
2026-04-22 20:27 41.28222 13.97820 22085 ft 218 kts 328°
2026-04-22 20:28 41.29451 13.96841 22038 ft 203 kts 309°
2026-04-22 20:28 41.30342 13.95436 22101 ft 196 kts 304°
2026-04-22 20:28 41.31166 13.93990 22061 ft 196 kts 303°
2026-04-22 20:28 41.31958 13.92539 22076 ft 194 kts 302°
2026-04-22 20:29 41.32737 13.91076 22073 ft 193 kts 302°
2026-04-22 20:29 41.33501 13.89620 22072 ft 192 kts 302°
2026-04-22 20:29 41.34263 13.88157 22072 ft 192 kts 302°
2026-04-22 20:29 41.35017 13.86701 22074 ft 191 kts 302°
2026-04-22 20:30 41.35768 13.85246 22074 ft 191 kts 302°
2026-04-22 20:30 41.36526 13.83778 22074 ft 191 kts 302°
2026-04-22 20:30 41.37272 13.82328 22074 ft 191 kts 302°
2026-04-22 20:30 41.38015 13.80883 22073 ft 191 kts 302°
2026-04-22 20:31 41.38768 13.79419 22073 ft 191 kts 302°
2026-04-22 20:31 41.39518 13.77959 22073 ft 190 kts 302°
2026-04-22 20:31 41.40268 13.76499 22073 ft 190 kts 302°
2026-04-22 20:31 41.41012 13.75048 22073 ft 190 kts 302°
2026-04-22 20:32 41.41770 13.73570 22035 ft 193 kts 302°
2026-04-22 20:32 41.42540 13.72067 22038 ft 194 kts 302°
2026-04-22 20:32 41.43305 13.70574 22048 ft 196 kts 302°
2026-04-22 20:32 41.44072 13.69075 22048 ft 197 kts 302°
2026-04-22 20:33 41.44979 13.67705 22038 ft 201 kts 312°
2026-04-22 20:33 41.46036 13.66450 22051 ft 201 kts 313°
2026-04-22 20:33 41.47092 13.65217 22045 ft 202 kts 313°
2026-04-22 20:33 41.48146 13.63997 22045 ft 203 kts 314°
2026-04-22 20:34 41.49223 13.62755 22045 ft 203 kts 314°
2026-04-22 20:34 41.50291 13.61526 22044 ft 203 kts 314°
2026-04-22 20:34 41.51344 13.60315 22044 ft 203 kts 314°
2026-04-22 20:34 41.52419 13.59079 22043 ft 203 kts 314°
2026-04-22 20:35 41.53492 13.57845 22043 ft 203 kts 314°
2026-04-22 20:35 41.54552 13.56625 22043 ft 203 kts 314°
2026-04-22 20:35 41.55595 13.55425 22043 ft 203 kts 314°
2026-04-22 20:35 41.56676 13.54181 22042 ft 203 kts 314°
2026-04-22 20:36 41.57739 13.52957 22042 ft 203 kts 314°
2026-04-22 20:36 41.58813 13.51720 22042 ft 203 kts 314°
2026-04-22 20:36 41.59876 13.50495 22042 ft 203 kts 314°
2026-04-22 20:36 41.60943 13.49264 22042 ft 203 kts 314°
2026-04-22 20:37 41.62014 13.48029 22041 ft 203 kts 314°
2026-04-22 20:37 41.63074 13.46806 22041 ft 203 kts 314°
2026-04-22 20:37 41.64144 13.45570 22041 ft 203 kts 314°
2026-04-22 20:37 41.65206 13.44344 22041 ft 203 kts 314°
2026-04-22 20:38 41.66270 13.43114 22041 ft 203 kts 314°
2026-04-22 20:38 41.67344 13.41872 22040 ft 203 kts 314°
2026-04-22 20:38 41.68412 13.40637 22040 ft 203 kts 314°
2026-04-22 20:38 41.69481 13.39400 22040 ft 203 kts 314°
2026-04-22 20:39 41.70536 13.38178 22040 ft 202 kts 314°
2026-04-22 20:39 41.71613 13.36931 22040 ft 202 kts 314°
2026-04-22 20:39 41.72658 13.35723 22017 ft 194 kts 314°
2026-04-22 20:39 41.73616 13.34527 21859 ft 191 kts 309°
2026-04-22 20:40 41.74544 13.33203 21522 ft 196 kts 308°
2026-04-22 20:40 41.75476 13.31866 21210 ft 198 kts 309°
2026-04-22 20:40 41.76413 13.30519 20919 ft 197 kts 309°
2026-04-22 20:40 41.77341 13.29184 20592 ft 195 kts 310°
2026-04-22 20:41 41.78245 13.27882 20229 ft 190 kts 310°
2026-04-22 20:41 41.79126 13.26611 19877 ft 187 kts 310°
2026-04-22 20:41 41.80009 13.25334 19519 ft 185 kts 310°
2026-04-22 20:41 41.80875 13.24080 19154 ft 184 kts 311°
2026-04-22 20:42 41.81748 13.22818 18787 ft 185 kts 312°
2026-04-22 20:42 41.82611 13.21570 18441 ft 184 kts 312°
2026-04-22 20:42 41.83483 13.20307 18088 ft 184 kts 312°
2026-04-22 20:42 41.84356 13.19043 17733 ft 185 kts 313°
2026-04-22 20:43 41.85225 13.17784 17382 ft 186 kts 313°
2026-04-22 20:43 41.86112 13.16497 17026 ft 187 kts 313°
2026-04-22 20:43 41.86988 13.15227 16678 ft 189 kts 313°
2026-04-22 20:43 41.87878 13.13935 16327 ft 190 kts 313°
2026-04-22 20:44 41.88781 13.12626 15975 ft 192 kts 313°
2026-04-22 20:44 41.89692 13.11301 15624 ft 192 kts 313°
2026-04-22 20:44 41.90597 13.09987 15262 ft 191 kts 313°
2026-04-22 20:44 41.91494 13.08682 14905 ft 191 kts 313°
2026-04-22 20:45 41.92388 13.07382 14551 ft 192 kts 314°
2026-04-22 20:45 41.93270 13.06099 14204 ft 193 kts 314°
2026-04-22 20:45 41.94175 13.04782 13848 ft 191 kts 314°
2026-04-22 20:45 41.95063 13.03488 13468 ft 188 kts 314°
2026-04-22 20:46 41.96811 13.00940 12709 ft 184 kts 314°
2026-04-22 20:46 41.97674 12.99682 12341 ft 184 kts 314°
2026-04-22 20:46 41.98537 12.98422 11978 ft 184 kts 314°
2026-04-22 20:47 41.99401 12.97161 11619 ft 184 kts 314°
2026-04-22 20:47 42.00267 12.95896 11244 ft 182 kts 314°
2026-04-22 20:47 42.01118 12.94654 10877 ft 182 kts 315°
2026-04-22 20:47 42.01977 12.93398 10510 ft 182 kts 315°
2026-04-22 20:48 42.02766 12.92089 10136 ft 187 kts 301°
2026-04-22 20:48 42.03207 12.90434 9805 ft 190 kts 290°
2026-04-22 20:48 42.03539 12.88702 9454 ft 193 kts 288°
2026-04-22 20:48 42.03859 12.86928 9109 ft 194 kts 287°
2026-04-22 20:49 42.04176 12.85142 8755 ft 195 kts 287°
2026-04-22 20:49 42.04491 12.83362 8412 ft 196 kts 287°
2026-04-22 20:49 42.04809 12.81563 8064 ft 199 kts 287°
2026-04-22 20:49 42.05130 12.79743 7734 ft 201 kts 287°
2026-04-22 20:50 42.05454 12.77904 7382 ft 204 kts 287°
2026-04-22 20:50 42.05783 12.76034 6946 ft 210 kts 286°
2026-04-22 20:50 42.06121 12.74112 6520 ft 211 kts 286°
2026-04-22 20:50 42.06454 12.72216 6072 ft 211 kts 285°
2026-04-22 20:51 42.06793 12.70281 5655 ft 210 kts 285°
2026-04-22 20:51 42.07128 12.68371 5250 ft 209 kts 285°
2026-04-22 20:51 42.07457 12.66490 4851 ft 208 kts 284°
2026-04-22 20:51 42.07786 12.64607 4445 ft 203 kts 284°
2026-04-22 20:52 42.08103 12.62789 4034 ft 199 kts 284°
2026-04-22 20:52 42.08236 12.62025 3855 ft 197 kts 284°
2026-04-22 20:52 42.08498 12.60524 3507 ft 195 kts 284°
2026-04-22 20:52 42.08805 12.58758 3094 ft 193 kts 284°
2026-04-22 20:53 42.09104 12.57042 2928 ft 183 kts 284°
2026-04-22 20:53 42.09394 12.55371 2974 ft 182 kts 284°
2026-04-22 20:53 42.09412 12.53670 2920 ft 188 kts 252°
2026-04-22 20:53 42.08628 12.52278 2958 ft 188 kts 220°
2026-04-22 20:54 42.07494 12.51393 2946 ft 190 kts 205°
2026-04-22 20:54 42.06284 12.50721 2937 ft 189 kts 202°
2026-04-22 20:54 42.05072 12.50052 2934 ft 187 kts 203°
2026-04-22 20:54 42.03875 12.49387 2935 ft 186 kts 202°
2026-04-22 20:55 42.02670 12.48729 2932 ft 185 kts 202°
2026-04-22 20:55 42.01493 12.48082 2934 ft 184 kts 202°
2026-04-22 20:55 42.00308 12.47432 2934 ft 184 kts 202°
2026-04-22 20:55 41.99123 12.46819 2928 ft 184 kts 193°
2026-04-22 20:56 41.97876 12.47039 2946 ft 180 kts 155°
2026-04-22 20:56 41.96763 12.47804 2948 ft 184 kts 151°
2026-04-22 20:56 41.95630 12.48608 2946 ft 184 kts 151°
2026-04-22 20:56 41.94513 12.49391 2923 ft 179 kts 151°
2026-04-22 20:57 41.93421 12.50150 2910 ft 169 kts 151°
2026-04-22 20:57 41.92422 12.50844 2905 ft 156 kts 151°
2026-04-22 20:57 41.91455 12.51517 2775 ft 159 kts 151°
2026-04-22 20:57 41.90454 12.52211 2586 ft 165 kts 151°
2026-04-22 20:58 41.89440 12.52913 2374 ft 164 kts 151°
2026-04-22 20:58 41.88431 12.53613 2132 ft 158 kts 151°
2026-04-22 20:58 41.87507 12.54256 1894 ft 141 kts 151°
2026-04-22 20:58 41.86646 12.54846 1776 ft 143 kts 151°
2026-04-22 20:59 41.85775 12.55447 1558 ft 137 kts 151°
2026-04-22 20:59 41.84960 12.56010 1339 ft 125 kts 151°
2026-04-22 20:59 41.84226 12.56518 1167 ft 113 kts 150°
2026-04-22 20:59 41.83550 12.56986 1036 ft 109 kts 150°
2026-04-22 21:00 41.82876 12.57452 963 ft 111 kts 149°
2026-04-22 21:00 41.82165 12.57943 787 ft 117 kts 150°
2026-04-22 21:00 41.81463 12.58427 608 ft 108 kts 150°
2026-04-22 21:00 41.80828 12.58867 475 ft 99 kts 149°
2026-04-22 21:01 41.80265 12.59259 425 ft 65 kts 152°
2026-04-22 21:01 41.79968 12.59462 425 ft 50 kts 153°
2026-04-22 21:01 41.79728 12.59628 425 ft 29 kts 154°
2026-04-22 21:01 41.79641 12.59604 425 ft 11 kts 242°
2026-04-22 21:02 41.79620 12.59534 425 ft 5 kts 266°
2026-04-22 21:02 41.79620 12.59520 425 ft 1 kts 271°
2026-04-22 21:02 41.79664 12.59471 425 ft 12 kts 337°
2026-04-22 21:02 41.79769 12.59396 425 ft 19 kts 335°
2026-04-22 21:03 41.79797 12.59317 425 ft 12 kts 234°
2026-04-22 21:03 41.79791 12.59251 425 ft 1 kts 309°
2026-04-22 21:03 41.79791 12.59250 425 ft 0 kts 309°